User: anonymous   Login
Location: Gombori
(14.9797°N, 2.9419°W)
Time: 23:46:49
(UTC+00:00)
Language:

USA 238 - Orbit

View from above orbital plane
View from above orbital plane
View from above satellite
View from above satellite

Ground track
Ground track

The orbit data is extracted from the following two-line orbital elements,

1 38758U 12048A   21298.78978968 0.00000000  00000-0  00000-0 0    03
2 38758  63.4383 210.2778 0168726 359.5039   0.4961 13.40817821    06
Epoch (UTC): 25 October 2021 18:57:17
Eccentricity: 0.0168726
inclination: 63.4383°
perigee height: 980 km
apogee height: 1232 km
right ascension of ascending node: 210.2778°
argument of perigee: 359.5039°
revolutions per day: 13.40817821
mean anomaly at epoch: 0.4961°
orbit number at epoch: 0

The dashed part of the orbit path shows where the satellite is in the earth's shadow,  

DLR